This demonstration page uses our WeatherBlox Daily Observations layout. Learn more.

Left ArrowRight Arrow

44.8408, -93.29828

Hourly Observations for September 16, 2016

Temp ( °F °C ) Dew Point ( °F °C ) Humidity (%) Winds ( mph kmh ) Pressure ( in mb ) Visibility ( mi km ) Precip ( " mm )
12:53 am 00:53 Cloudy 63 17.2 61 16.1 93 93 SSE 6 9 29.92 1013 10 16 0.00 0.00
1:53 am 01:53 Cloudy 63 17.2 61 16.1 93 93 SSE 5 7 29.90 1012 10 16 0.00 0.00
2:53 am 02:53 Cloudy 63 17.2 60 15.6 90 90 SSE 7 11 29.89 1012 10 16 0.00 0.00
3:53 am 03:53 Cloudy 63 17.2 60 15.6 90 90 S 6 9 29.87 1012 10 16 0.00 0.00
4:53 am 04:53 Cloudy 64 17.8 60 15.6 87 87 S 5 7 29.88 1012 10 16 0.00 0.00
5:53 am 05:53 Cloudy 64 17.8 60 15.6 87 87 SSW 5 7 29.87 1012 10 16 0.00 0.00
6:53 am 06:53 Mostly Cloudy 63 17.2 60 15.6 90 90 W 5 7 29.86 1011 10 16 0.00 0.00
7:53 am 07:53 Mostly Cloudy 64 17.8 59 15 84 84 WSW 7 11 29.88 1012 10 16 0.00 0.00
8:35 am 08:35 Mostly Cloudy 64 17.8 59 15 84 84 VRB 5 7 29.91 1013 10 16 0.00 0.00
8:53 am 08:53 Mostly Cloudy 64 17.8 59 15 84 84 S 6 9 29.89 1012 10 16 0.00 0.00
9:53 am 09:53 Cloudy 66 18.9 59 15 78 78 SW 8 13 29.90 1012 10 16 0.00 0.00
10:17 am 10:17 Cloudy 67 19.4 59 15 76 76 SSW 8 13 29.91 1013 10 16 0.00 0.00
10:28 am 10:28 Cloudy 66 18.9 59 15 78 78 SW 8 13 29.91 1013 10 16 0.00 0.00
10:43 am 10:43 Cloudy 66 18.9 60 15.6 81 81 SSW 6 9 29.91 1013 10 16 0.00 0.00
10:53 am 10:53 Cloudy 66 18.9 60 15.6 81 81 VRB 7 11 29.89 1012 10 16 0.00 0.00
11:53 am 11:53 Cloudy 69 20.6 60 15.6 73 73 SW 8 13 29.87 1011 10 16 0.00 0.00
12:53 pm 12:53 Cloudy 71 21.7 61 16.1 71 71 WSW 7 11 29.85 1011 10 16 0.00 0.00
1:38 pm 13:38 Cloudy 72 22.2 60 15.6 66 66 WSW 10 17 29.83 1010 10 16 0.00 0.00
1:53 pm 13:53 Cloudy 72 22.2 60 15.6 66 66 SW 9 15 29.85 1011 10 16 0.00 0.00
2:53 pm 14:53 Mostly Cloudy 74 23.3 59 15 60 60 SW 9 15 29.83 1010 10 16 0.00 0.00
3:53 pm 15:53 Mostly Sunny 76 24.4 59 15 56 56 SW 10 17 29.81 1010 10 16 0.00 0.00
4:53 pm 16:53 Partly Cloudy 75 23.9 61 16.1 62 62 S 10 17 29.80 1009 10 16 0.00 0.00
5:53 pm 17:53 Partly Cloudy 75 23.9 61 16.1 62 62 SSW 10 17 29.79 1009 10 16 0.00 0.00
6:53 pm 18:53 Partly Cloudy 74 23.3 61 16.1 64 64 S 8 13 29.78 1009 10 16 0.00 0.00
7:53 pm 19:53 Mostly Cloudy 73 22.8 61 16.1 66 66 S 5 7 29.78 1009 10 16 0.00 0.00
8:32 pm 20:32 Cloudy with Nearby Thunderstorms 69 20.6 61 16.1 76 76 S 7 11 29.80 1009 10 16 0.06 1.52
8:53 pm 20:53 Cloudy 69 20.6 61 16.1 76 76 SW 9 15 29.80 1009 10 16 0.06 1.52
9:53 pm 21:53 Cloudy 69 20.6 58 14.4 68 68 WNW 10 17 29.82 1010 10 16 0.00 0.00
10:53 pm 22:53 Mostly Cloudy 67 19.4 57 13.9 71 71 W 6 9 29.83 1010 10 16 0.00 0.00
11:53 pm 23:53 Mostly Cloudy 66 18.9 57 13.9 73 73 WSW 5 7 29.83 1010 10 16 0.00 0.00

Powered by AerisWeather